N1EVH Weather Reports


time (UTC)temp
F
wind
direction
speed
knots
gust
knots
rain 1hr
in
rain 24hr
in
rain mn
in
humidity
%
barometer
mb
20260508004504 57 251 5.2 10.4 0.00 0.12 0.12 38 1006.8
20260508004006 58 337 7.8 12.2 0.00 0.12 0.12 38 1006.7
20260508003504 58 258 7.0 12.2 0.00 0.12 0.12 38 1006.7
20260508003006 58 271 7.0 10.4 0.00 0.12 0.12 37 1006.6
20260508002504 58 277 7.0 12.2 0.00 0.12 0.12 37 1006.5
20260508002007 58 293 4.3 7.8 0.00 0.12 0.12 37 1006.4
20260508001504 58 267 7.8 11.3 0.00 0.12 0.12 36 1006.4
20260508001006 59 286 4.3 7.8 0.00 0.12 0.12 37 1006.4
20260508000504 59 286 4.3 7.8 0.00 0.12 0.12 36 1006.3
20260508000004 59 282 5.2 10.4 0.00 0.12 0.12 36 1006.2
20260507235503 59 277 7.8 13.0 0.00 0.13 0.12 36 1006.3
20260507234504 60 300 5.2 7.8 0.00 0.13 0.12 35 1006.1
20260507234006 60 302 4.3 8.7 0.00 0.13 0.12 35 1006.0
20260507233505 60 278 3.5 10.4 0.00 0.13 0.12 35 1006.1
20260507232504 61 286 5.2 10.4 0.00 0.14 0.12 34 1006.0
20260507232007 61 304 6.1 11.3 0.00 0.14 0.12 34 1005.9
20260507231504 61 283 2.6 10.4 0.00 0.14 0.12 34 1005.8
20260507231005 61 329 4.3 11.3 0.00 0.14 0.12 34 1005.8
20260507230504 61 308 3.5 13.0 0.00 0.14 0.12 33 1005.7
20260507230004 62 272 3.5 8.7 0.00 0.14 0.12 34 1005.7
20260507225504 62 284 8.7 13.0 0.00 0.14 0.12 32 1005.6
20260507225007 62 245 7.0 13.9 0.00 0.14 0.12 33 1005.6
20260507224006 62 329 4.3 10.4 0.00 0.14 0.12 33 1005.6
20260507223504 62 334 5.2 15.6 0.00 0.14 0.12 33 1005.5
20260507223005 62 309 7.8 11.3 0.00 0.14 0.12 32 1005.5
20260507222504 62 301 6.1 13.0 0.00 0.14 0.12 32 1005.5
20260507221504 63 288 8.7 18.2 0.00 0.14 0.12 32 1005.3
20260507221005 63 216 5.2 12.2 0.00 0.14 0.12 32 1005.3
20260507220504 63 320 7.8 13.0 0.00 0.14 0.12 32 1005.3
20260507220005 63 290 10.4 13.9 0.00 0.14 0.12 31 1005.2
20260507215504 64 303 3.5 11.3 0.00 0.14 0.12 33 1005.1
20260507215006 64 297 3.5 11.3 0.00 0.15 0.12 33 1005.1
20260507214504 64 310 5.2 15.6 0.00 0.15 0.12 33 1005.1
20260507214006 64 313 5.2 14.8 0.00 0.15 0.12 32 1005.1
20260507213504 64 307 6.1 12.2 0.00 0.15 0.12 32 1005.0
20260507213006 64 296 5.2 12.2 0.00 0.15 0.12 34 1005.0
20260507212006 64 99 3.5 8.7 0.00 0.15 0.12 33 1004.9
20260507211504 64 293 7.0 14.8 0.00 0.15 0.12 32 1004.9
20260507211006 64 232 2.6 13.0 0.00 0.15 0.12 33 1005.0
20260507210504 65 283 7.8 14.8 0.00 0.15 0.12 32 1004.9
20260507210005 65 242 7.0 14.8 0.00 0.15 0.12 32 1004.8
20260507205504 65 269 7.8 14.8 0.00 0.15 0.12 32 1004.9
20260507205006 65 213 5.2 17.4 0.00 0.15 0.12 32 1004.9
20260507204505 65 285 5.2 11.3 0.00 0.15 0.12 32 1004.9
20260507203504 65 298 10.4 18.2 0.00 0.15 0.12 30 1004.9
20260507203006 65 348 4.3 13.9 0.00 0.15 0.12 32 1004.9
20260507202504 64 276 5.2 15.6 0.00 0.15 0.12 32 1004.9
20260507201504 65 262 12.2 19.1 0.00 0.15 0.12 30 1004.8
20260507200504 65 262 2.6 11.3 0.00 0.15 0.12 31 1004.9
20260507200004 65 313 5.2 10.4 0.00 0.15 0.12 31 1004.9
20260507195504 65 320 7.8 14.8 0.00 0.15 0.12 32 1005.0
20260507195006 65 286 7.8 17.4 0.00 0.15 0.12 31 1005.1
20260507194504 65 291 6.1 11.3 0.00 0.15 0.12 30 1005.1
20260507193504 65 253 4.3 12.2 0.00 0.15 0.12 32 1005.0
20260507193007 65 281 4.3 10.4 0.00 0.15 0.12 31 1005.1
20260507192504 65 301 4.3 10.4 0.00 0.15 0.12 32 1005.2
20260507192006 66 284 11.3 15.6 0.00 0.15 0.12 30 1005.2
20260507191504 66 282 8.7 17.4 0.00 0.15 0.12 30 1005.3
20260507191006 65 224 10.4 15.6 0.00 0.15 0.12 31 1005.3
20260507190504 65 282 1.7 10.4 0.00 0.15 0.12 34 1005.2
20260507185504 65 207 9.6 15.6 0.00 0.15 0.12 31 1005.5
20260507185006 65 262 3.5 13.0 0.00 0.15 0.12 34 1005.4
20260507183504 65 352 2.6 10.4 0.00 0.15 0.12 37 1005.6
20260507183006 64 269 7.8 13.9 0.00 0.15 0.12 32 1005.7
20260507182007 64 295 8.7 17.4 0.00 0.15 0.12 35 1005.6
20260507181006 64 22 10.4 17.4 0.00 0.15 0.12 36 1005.9
20260507180504 64 286 11.3 17.4 0.00 0.15 0.12 36 1005.9
20260507175504 64 279 7.8 18.2 0.00 0.15 0.12 36 1006.0
20260507175006 65 214 7.8 13.9 0.00 0.15 0.12 39 1005.8
20260507174006 64 221 7.0 12.2 0.00 0.15 0.12 40 1005.9
20260507173504 64 312 4.3 10.4 0.00 0.15 0.12 42 1005.8
20260507173006 64 302 5.2 18.2 0.00 0.15 0.12 43 1005.9
20260507172504 64 240 7.8 18.2 0.00 0.15 0.12 43 1005.9
20260507171006 62 257 8.7 13.0 0.00 0.15 0.12 46 1006.0
20260507170504 63 276 8.7 14.8 0.00 0.15 0.12 45 1006.1
20260507170004 63 302 6.1 15.6 0.00 0.15 0.12 48 1006.2
20260507165504 64 266 8.7 15.6 0.00 0.15 0.12 48 1006.1
20260507164504 63 248 5.2 13.9 0.00 0.15 0.12 50 1006.2
20260507164006 63 250 10.4 17.4 0.00 0.15 0.12 49 1006.3
20260507163504 63 236 12.2 17.4 0.00 0.15 0.12 48 1006.3
20260507162504 62 227 8.7 14.8 0.00 0.15 0.12 53 1006.4
20260507162006 62 244 7.8 13.9 0.00 0.15 0.12 51 1006.5
20260507161504 61 239 5.2 13.9 0.00 0.15 0.12 53 1006.5
20260507161007 61 240 4.3 14.8 0.00 0.15 0.12 53 1006.6
20260507160504 61 304 4.3 13.0 0.00 0.15 0.12 54 1006.7
20260507160004 61 313 6.1 12.2 0.00 0.15 0.12 53 1006.7
20260507155504 61 245 10.4 13.9 0.00 0.15 0.12 51 1006.8
20260507155006 61 208 10.4 13.9 0.00 0.15 0.12 52 1006.9
20260507154504 60 318 6.1 10.4 0.00 0.15 0.12 54 1006.9
20260507154007 60 232 6.1 11.3 0.00 0.15 0.12 54 1007.0
20260507153504 60 262 5.2 13.9 0.00 0.15 0.12 53 1007.0
20260507153006 60 298 6.1 12.2 0.00 0.15 0.12 53 1007.0
20260507152503 60 322 5.2 10.4 0.00 0.15 0.12 53 1007.1
20260507152007 60 298 8.7 12.2 0.00 0.15 0.12 52 1007.1
20260507151504 60 271 6.1 10.4 0.00 0.15 0.12 53 1007.1
20260507151006 60 280 7.0 13.0 0.00 0.15 0.12 52 1007.2
20260507150504 60 315 6.1 10.4 0.00 0.15 0.12 50 1007.2
20260507150004 60 260 8.7 13.0 0.00 0.15 0.12 50 1007.3
20260507145504 59 280 4.3 15.6 0.00 0.15 0.12 50 1007.4
20260507145006 59 281 4.3 10.4 0.00 0.15 0.12 52 1007.5
20260507143504 58 263 7.0 15.6 0.00 0.15 0.12 53 1007.5
20260507143006 58 232 6.1 10.4 0.00 0.15 0.12 54 1007.5
20260507142504 58 262 3.5 10.4 0.00 0.15 0.12 55 1007.6
20260507142006 58 269 4.3 10.4 0.00 0.15 0.12 55 1007.7
20260507141504 58 286 1.7 7.0 0.00 0.15 0.12 56 1007.6
20260507141007 58 322 2.6 7.8 0.00 0.15 0.12 57 1007.7
20260507140503 57 253 6.1 8.7 0.00 0.15 0.12 58 1007.6
20260507135504 57 272 5.2 10.4 0.00 0.15 0.12 58 1007.6
20260507134503 56 323 1.7 7.8 0.00 0.15 0.12 60 1007.5
20260507134006 56 272 1.7 7.0 0.00 0.15 0.12 61 1007.6
20260507133504 56 305 3.5 7.8 0.00 0.15 0.12 60 1007.6
20260507133006 55 43 3.5 8.7 0.00 0.15 0.12 61 1007.7
20260507132504 55 327 4.3 10.4 0.00 0.15 0.12 61 1007.7
20260507132006 55 299 2.6 7.0 0.00 0.15 0.12 62 1007.8
20260507131504 54 320 2.6 8.7 0.00 0.15 0.12 62 1007.9
20260507131006 54 331 2.6 12.2 0.00 0.15 0.12 63 1007.8
20260507130504 54 332 2.6 8.7 0.00 0.15 0.12 65 1007.8
20260507130004 53 312 2.6 10.4 0.00 0.15 0.12 67 1008.0
20260507125504 53 322 4.3 8.7 0.00 0.15 0.12 69 1008.1
20260507125006 52 292 4.3 10.4 0.00 0.15 0.12 70 1008.1
20260507124504 52 316 1.7 5.2 0.00 0.15 0.12 74 1008.1
20260507124006 51 13 2.6 6.1 0.00 0.15 0.12 75 1008.0
20260507123504 51 277 4.3 7.0 0.00 0.15 0.12 75 1008.0
20260507123006 51 323 1.7 7.0 0.00 0.15 0.12 76 1008.0
20260507122504 50 290 2.6 8.7 0.00 0.15 0.12 76 1007.8
20260507122006 50 313 5.2 8.7 0.00 0.15 0.12 77 1008.0
20260507121504 50 346 1.7 7.8 0.00 0.15 0.12 78 1007.9
20260507120504 49 303 1.7 6.1 0.00 0.15 0.12 78 1007.9
20260507120004 49 303 4.3 7.0 0.00 0.15 0.12 78 1007.8
20260507115506 49 319 0.9 6.1 0.00 0.15 0.12 79 1007.9
20260507115006 49 272 1.7 6.1 0.00 0.15 0.12 79 1007.9
20260507114006 49 321 1.7 7.0 0.00 0.15 0.12 79 1007.6
20260507113006 49 307 0.9 5.2 0.00 0.15 0.12 79 1007.7
20260507112504 49 287 1.7 5.2 0.00 0.15 0.12 79 1007.6
20260507112006 49 312 1.7 2.6 0.00 0.15 0.12 79 1007.7
20260507111504 49 314 0.9 2.6 0.00 0.15 0.12 79 1007.6
20260507111005 49 300 0.9 2.6 0.01 0.15 0.12 79 1007.6
20260507110504 49 286 0.9 4.3 0.01 0.15 0.12 79 1007.4
20260507110005 49 303 0.9 4.3 0.01 0.15 0.12 79 1007.6
20260507105006 49 281 1.7 2.6 0.02 0.15 0.12 79 1007.9
20260507104504 49 229 1.7 2.6 0.03 0.15 0.12 79 1007.9
20260507104005 49 214 2.6 4.3 0.04 0.15 0.12 79 1008.0
20260507103006 49 265 0.9 2.6 0.05 0.15 0.12 79 1007.4
20260507102504 49 239 1.7 2.6 0.05 0.15 0.12 79 1007.4
20260507102007 49 264 0.0 2.6 0.06 0.15 0.12 79 1007.5
20260507101504 49 268 1.7 2.6 0.07 0.15 0.12 79 1007.5
20260507101006 49 294 0.9 6.1 0.07 0.14 0.11 78 1007.4
20260507100504 49 274 2.6 7.0 0.08 0.14 0.11 78 1007.4
20260507100004 49 310 0.9 7.0 0.08 0.14 0.11 78 1007.1
20260507095504 49 285 2.6 7.8 0.07 0.13 0.10 78 1007.1
20260507095006 49 289 2.6 6.1 0.08 0.13 0.10 78 1007.2
20260507094006 50 313 4.3 10.4 0.06 0.11 0.08 78 1007.1
20260507093006 50 21 3.5 8.7 0.05 0.10 0.07 78 1006.9
20260507092504 51 288 2.6 10.4 0.05 0.10 0.07 78 1007.0
20260507092006 51 287 0.9 4.3 0.05 0.09 0.06 78 1007.0
20260507091516 51 271 2.6 7.8 0.04 0.08 0.05 78 1007.1
20260507091033 52 289 1.7 7.0 0.03 0.07 0.04 78 1007.1
20260507090504 52 274 0.0 2.6 0.02 0.06 0.03 78 1007.3
20260507090004 52 275 0.9 2.6 0.02 0.06 0.03 78 1007.2
20260507085504 52 291 0.0 5.2 0.02 0.06 0.03 78 1007.2
20260507085005 52 262 2.6 6.1 0.01 0.05 0.02 78 1007.3
20260507084504 52 286 2.6 6.1 0.02 0.05 0.02 77 1007.1
20260507083504 52 292 2.6 6.1 0.02 0.05 0.02 77 1006.9
20260507083006 53 289 0.9 2.6 0.02 0.05 0.02 76 1006.9
20260507082504 53 324 1.7 2.6 0.02 0.05 0.02 76 1006.8
20260507082006 53 291 0.9 5.2 0.01 0.04 0.01 76 1006.5
20260507081504 53 291 0.9 5.2 0.01 0.04 0.01 75 1006.8
20260507080004 53 329 3.5 7.8 0.01 0.04 0.01 73 1006.7
20260507075504 54 9 3.5 7.8 0.01 0.04 0.01 73 1006.6
20260507075006 54 267 2.6 10.4 0.01 0.04 0.01 72 1006.8
20260507074504 54 330 5.2 10.4 0.00 0.03 0.00 71 1006.8
20260507074006 54 279 6.1 10.4 0.00 0.03 0.00 70 1006.9
20260507073504 54 280 1.7 5.2 0.00 0.03 0.00 70 1006.6
20260507073006 54 296 2.6 5.2 0.00 0.03 0.00 70 1006.1
20260507072504 54 345 0.9 7.0 0.00 0.03 0.00 70 1006.1
20260507072006 54 340 2.6 7.0 0.00 0.03 0.00 70 1006.1
20260507071005 54 296 4.3 12.2 0.00 0.03 0.00 70 1006.3
20260507070504 54 260 2.6 11.3 0.00 0.03 0.00 70 1006.1
20260507070008 54 322 3.5 8.7 0.00 0.03 0.00 71 1006.0
20260507065504 55 280 2.6 8.7 0.00 0.03 0.00 72 1006.2
20260507065006 55 252 4.3 8.7 0.00 0.03 0.00 72 1006.2
20260507064504 55 310 3.5 13.0 0.00 0.03 0.00 73 1006.3
20260507064006 55 45 2.6 8.7 0.00 0.03 0.00 74 1006.2
20260507063504 55 289 4.3 8.7 0.00 0.03 0.00 75 1006.1
20260507062006 56 292 0.9 7.8 0.00 0.03 0.00 76 1005.7
20260507061504 56 289 4.3 11.3 0.00 0.03 0.00 76 1005.8
20260507061006 56 282 2.6 7.8 0.00 0.03 0.00 76 1006.0
20260507060504 56 271 5.2 10.4 0.00 0.03 0.00 76 1006.2
20260507060004 56 277 5.2 8.7 0.00 0.03 0.00 76 1006.1
20260507055504 57 339 2.6 7.8 0.00 0.03 0.00 77 1006.1
20260507055006 57 282 0.9 6.1 0.00 0.03 0.00 77 1006.3
20260507054504 57 284 4.3 8.7 0.00 0.03 0.00 77 1006.5
20260507054006 57 248 6.1 11.3 0.00 0.03 0.00 77 1006.4
20260507053504 57 287 1.7 8.7 0.00 0.03 0.00 77 1006.3
20260507053006 57 304 5.2 10.4 0.00 0.03 0.00 77 1006.3
20260507051504 57 298 4.3 8.7 0.00 0.03 0.00 79 1006.1
20260507051006 57 264 4.3 10.4 0.00 0.03 0.00 79 1006.1
20260507050504 58 304 7.0 13.9 0.00 0.03 0.00 80 1006.1
20260507050005 58 289 7.8 15.6 0.00 0.03 0.00 80 1006.2
20260507045504 59 306 4.3 11.3 0.00 0.03 0.00 81 1006.1
20260507045006 59 271 6.1 11.3 0.00 0.03 0.00 81 1006.1
20260507043504 59 277 6.1 10.4 0.00 0.03 0.00 81 1005.8
20260507042504 60 243 5.2 7.8 0.00 0.03 0.00 81 1005.9
20260507042007 60 226 4.3 8.7 0.00 0.03 0.00 81 1006.0
20260507041006 60 273 3.5 6.1 0.00 0.03 0.00 81 1006.2
20260507040504 60 271 1.7 6.1 0.00 0.03 0.00 81 1006.3
20260507035006 60 224 6.1 10.4 0.00 0.03 0.03 81 1006.1
20260507034005 60 229 6.1 13.9 0.00 0.03 0.03 80 1005.9
20260507033504 60 225 7.8 14.8 0.00 0.03 0.03 80 1006.0
20260507033006 60 222 10.4 13.0 0.00 0.03 0.03 80 1005.9
20260507032504 60 219 8.7 13.9 0.00 0.03 0.03 80 1005.8
20260507032006 60 213 10.4 13.9 0.00 0.03 0.03 80 1005.7
20260507031504 60 214 8.7 13.9 0.00 0.03 0.03 79 1005.7
20260507030504 60 213 6.1 10.4 0.00 0.03 0.03 80 1005.4
20260507024504 60 217 8.7 13.9 0.00 0.03 0.03 79 1005.7
20260507024005 60 209 7.8 13.0 0.00 0.03 0.03 79 1005.7
20260507023504 60 225 9.6 13.9 0.00 0.03 0.03 79 1005.7
20260507022504 60 211 8.7 13.9 0.00 0.03 0.03 80 1005.7
20260507022006 60 232 7.0 12.2 0.00 0.03 0.03 80 1005.7
20260507021504 60 216 8.7 13.0 0.00 0.03 0.03 80 1005.8
20260507021006 60 217 7.8 11.3 0.00 0.03 0.03 80 1005.6
20260507020504 60 213 5.2 10.4 0.00 0.03 0.03 80 1005.7
20260507020004 59 220 5.2 10.4 0.00 0.03 0.03 80 1005.6
20260507015006 59 234 5.2 14.8 0.00 0.03 0.03 80 1005.8
20260507013504 59 211 9.6 13.9 0.00 0.03 0.03 80 1005.9
20260507012504 59 194 7.0 11.3 0.00 0.03 0.03 80 1006.0
20260507012006 59 211 7.8 15.6 0.00 0.03 0.03 80 1006.0
20260507011504 59 210 9.6 14.8 0.00 0.03 0.03 80 1006.1
20260507011006 59 220 8.7 15.6 0.00 0.03 0.03 80 1006.2
20260507010004 58 217 7.8 12.2 0.00 0.03 0.03 80 1006.2
20260507005504 58 205 7.8 12.2 0.01 0.03 0.03 80 1006.2